Location: Newark
(50.0336°N, 22.0047°E)
Time: 20:44:45
(UTC+00:00)

N. Korean satellite - Pass Details

Date: 26 January 2020
Orbit: 456 x 505 km, 97.2° (Epoch: 23 February)

Event Time Altitude Azimuth Distance (km) Brightness Sun altitude
Rises 15:54:59 0° 186° (S) 2,463 10.5 -6.7°
Reaches altitude 10° 15:57:08 10° 196° (SSW) 1,595 9.7 -7.0°
Maximum altitude 16:00:17 34° 263° (W) 771 8.4 -7.4°
Drops below altitude 10° 16:03:29 10° 330° (NNW) 1,616 9.3 -7.9°
Sets 16:05:40 0° 340° (NNW) 2,502 10.2 -8.3°
